www.pogodaiklimat.ru

Погода и климат >> Архив погоды >> Казахстан >> Астана


АРХИВ ПОГОДЫ в Астане

Время (UTC), дата Ветер
(напр.,м/с)
 
Видим.   Явления Облачность Т
(С)
Тd
(С)
f
(%)
Тe
(С)
Тes
(С)
Комфортность P
(гПа)
Po
(гПа)
Тmin
(С)
Tmax
(С)
R
(мм)
R24
(мм)
S
(см)
00 22.05 Ю 3 10 км 10/0
[Ac und Ci fib]
+14.7 +2.3 43 +14 +14 тепло 1010.8 970.0
03 22.05 ЮЗ 4 10 км 10/0
[Ac trans Cs]
+18.6 +3.6 37 +19 +22 тепло 1010.0 969.8
06 22.05 Ю 7 10 км 8/0
[Ac cast Cc]
+25.2 +0.7 20 +24 +27 комфорт 1008.2 968.9 +14.3
09 22.05 Ю 5 10 км ясно +28.5 -0.6 15 +26 +34 жарко 1006.1 967.3
12 22.05 Ю 4 10 км 10/0
[Ci]
+28.6 -0.5 15 +26 +29 жарко 1004.2 965.5
15 22.05 Ю 3 10 км 10/0
[Ac cast Cc]
+25.6 +1.7 21 +24 +24 комфорт 1004.1 965.0 +29.7
18 22.05 Ю 3 н/о 10/0
[Ci]
+23.3 +2.2 25 +23 +23 комфорт 1003.2 963.9 +29.7
21 22.05 Ю 1 н/о 10/0
[Ci fib]
+19.9 +1.4 29 +21 +21 комфорт 1001.1 961.4
00 23.05 Ю 4 10 км 10/0
[Cs]
+17.9 -0.9 28 +18 +18 тепло 999.2 959.3
03 23.05 Ю 5 10 км 10/0
[Ci fib]
+22.2 +4.3 31 +22 +25 комфорт 997.8 958.6
06 23.05 ЮЗ 5 10 км {ливн. осадки} 3/0
[Ci fib]
+24.3 +9.9 40 +25 +33 комфорт 997.7 958.8 +17.6
09 23.05 ЮЗ 7
{16}
10 км 4/4 1000 м
[Cu med, cong]
+24.0 +8.8 38 +25 +27 комфорт 1000.0 961.0
12 23.05 З 15-16
{20}
10 км {метель} 10/8 1500 м
[Sc Ac und]
+19.2 +10.5 57 +19 +19 по сезону 1004.2 964.4
15 23.05 ЮЗ 5
{16}
10 км 9/8 1500 м
[Sc Ac As]
+20.6 +10.1 51 +22 +22 комфорт 1004.5 964.9 +25.0
18 23.05 ЮЗ 3 н/о ясно +17.5 +11.3 67 +18 +18 тепло 1006.7 966.6 +25.0 0.0
21 23.05 З 1 н/о ясно +13.4 +10.6 83 +14 +14 тепло 1009.2 968.4
00 24.05 Ю 1 10 км 9/0
[Ci]
+12.3 +10.5 89 +12 +12 тепло 1009.8 968.8
03 24.05 Ю 4 4000 м слабый ливневой дождь 10/10 1000 м
[Cb cap]
+14.2 +11.7 85 +13 +13 по сезону 1010.2 969.5
06 24.05 З 5 10 км {ливн. осадки} 8/3
[Cb cap Ac lent]
+13.6 +9.8 78 +12 +14 холодно 1010.5 969.7 +11.9 0.1
09 24.05 З 6 10 км 9/6 1000 м
[Cu med, cong Ci ing]
+17.9 +3.4 38 +17 +19 по сезону 1010.8 970.5
12 24.05 З 6 10 км 3/3 1500 м
[Cu hum]
+16.4 +2.1 38 +15 +17 прохладно 1012.6 972.0
15 24.05 СЗ 2 10 км ясно +11.6 +1.3 49 +11 +11 прохладно 1015.6 974.2 +18.4
18 24.05 СЗ 2 н/о ясно +7.5 +0.5 61 +6 +6 холодно 1018.1 976.0 +18.4 0.3
21 24.05 З 1 н/о ясно +4.8 +0.7 75 +4 +4 холодно 1019.6 977.0
00 25.05 штиль 0 10 км ясно +5.0 +1.7 79 +4 +4 прохладно 1019.9 977.4
03 25.05 З 2 10 км ясно +12.4 +0.8 45 +12 +19 по сезону 1020.0 978.5
06 25.05 З 3 10 км 4/4 1500 м
[Cu med, cong]
+15.4 -1.2 32 +15 +23 по сезону 1019.4 978.4 +4.0
09 25.05 СЗ 2 10 км ясно +18.8 -0.1 28 +19 +34 опасность
простуды
1018.0 977.5
12 25.05 З 4 10 км ясно +19.7 -1.4 24 +20 +23 тепло 1017.4 977.0
15 25.05 З 1 10 км ясно +17.5 +0.6 32 +19 +19 тепло 1017.6 976.9 +20.1
18 25.05 Ю 1 н/о ясно +14.6 +1.8 42 +15 +15 тепло 1018.7 977.6 +20.1
21 25.05 штиль 0 н/о ясно +8.5 +4.7 77 +8 +8 по сезону 1020.4 978.4
00 26.05 В 1 10 км ясно +11.4 +1.4 50 +12 +12 тепло 1021.4 979.7
03 26.05 СВ 1 10 км ясно +16.3 +4.0 44 +17 +25 тепло 1022.3 981.3
06 26.05 СВ 1 10 км 6/6 1500 м
[Cu med, cong]
+20.7 +2.5 30 +22 +30 комфорт 1022.1 981.7 +8.4
09 26.05 Ю 2 10 км 6/6 1500 м
[Cu med, cong]
+22.2 +1.8 26 +22 +28 комфорт 1021.7 981.5
12 26.05 СВ 3 10 км ясно +22.6 +1.6 25 +22 +26 комфорт 1020.8 980.7
15 26.05 СВ 3 10 км ясно +20.2 +0.6 27 +21 +21 комфорт 1020.4 980.0 +23.6
18 26.05 В 1 н/о ясно +16.6 +3.0 40 +18 +18 тепло 1020.5 979.6 +23.6
21 26.05 В 2 н/о ясно +14.2 +0.4 39 +14 +14 тепло 1019.9 978.7
00 27.05 В 3 10 км 10/0
[Cs]
+13.0 +0.4 42 +12 +12 тепло 1017.7 976.4
03 27.05 Ю 1 4000 м слабый ливневой дождь 10/10 300 м
[Cb cap]
+13.7 +3.8 51 +14 +14 по сезону 1017.2 976.0
06 27.05 ЮВ 3 10 км {ливн. осадки} 10/6 1000 м
[Cb cap Ac und]
+16.4 +8.6 60 +16 +18 по сезону 1014.6 974.0 +13.0 0.3
09 27.05 Ю 7 10 км 10/4 1000 м
[Sc Ac As Ci]
+21.3 +8.9 45 +23 +24 комфорт 1011.1 971.3
12 27.05 Ю 4 10 км в посл. час ливневой дождь 10/8 1000 м
[Cb cap Ac und]
+22.2 +9.0 43 +24 +24 комфорт 1008.4 968.8
15 27.05 Ю 5 10 км {ливн. осадки} 10/8 1000 м
[Cb cap Ac und]
+20.3 +11.0 55 +22 +22 комфорт 1006.6 966.8 +23.9
18 27.05 Ю 5 н/о {ливн. осадки} 10/10 1500 м
[Cb cap]
+16.6 +13.1 80 +16 +16 тепло 1005.4 965.2 +23.9 4
21 27.05 Ю 3 н/о {ливн. осадки} 8/0
[Ac As]
+16.7 +12.0 74 +16 +16 тепло 1003.0 962.9
00 28.05 Ю 4 10 км {ливн. осадки} 4/0
[Ci fib]
+15.5 +11.5 77 +15 +15 тепло 1003.7 963.4
03 28.05 ЮЗ 3 10 км 3/0
[Ci fib]
+17.2 +10.6 65 +17 +22 тепло 1004.0 963.9
06 28.05 ЮЗ 5 10 км 4/4 1500 м
[Cu med, cong]
+20.7 +9.0 47 +22 +27 комфорт 1003.4 963.8 +15.3 3
09 28.05 ЮЗ 6 10 км 8/3 1000 м
[Cu med, cong Ac und]
+21.4 +8.3 43 +23 +25 комфорт 1003.7 964.2
12 28.05 З 5 10 км 8/6 1000 м
[Sc diur, vesp Ac und]
+21.3 +7.9 42 +22 +23 комфорт 1004.9 965.3
15 28.05 Ю 1 10 км 8/8 1500 м
[Sc diur, vesp]
+20.0 +9.3 50 +22 +22 комфорт 1005.7 965.9 +22.5
18 28.05 ЮЗ 1 н/о ясно +16.8 +10.4 66 +18 +18 тепло 1006.7 966.5 +22.5
21 28.05 Ю 1 н/о ясно +14.9 +10.1 73 +15 +15 тепло 1007.1 966.6

 

Местоположение метеостанции Астана (город Астана, Казахстан): широта 51.13 долгота 71.37 высота над уровнем моря 350 м.

В архиве по умолчанию представлена погода в Астане за последнюю неделю. Архивные данные за месяц целиком и за предыдущие месяцы, начиная с января 2011 года, Вы можете получить, выбрав интересующий диапазон дат из раскрывающегося списка и нажав кнопку "Ввод!".

Внимание! Время в таблицах - всемирное. Для получения местного времени необходимо прибавить поправку, которая в Астане равна 6 ч.

Смотрите также архив погоды в соседних городах и на ближайших метеорологических станциях:

Погода в Астане 2 (город Астана, Казахстан) (4 км)
Погода в Арнасае (Акмолинская область, Казахстан) (51 км)
Погода в Шортанды (Акмолинская область, Казахстан) (65 км)
Погода в Аршалы (Акмолинская область, Казахстан) (73 км)
Погода в Новомарковке (Акмолинская область, Казахстан) (92 км)
Погода в Киевке (Карагандинская область, Казахстан) (99 км)
Погода в Акколе (Акмолинская область, Казахстан) (101 км)
Погода в Осакаровке (Карагандинская область, Казахстан) (105 км)
Погода в Кургальджин (Акмолинская область, Казахстан) (114 км)
Погода в Жалтыре (Акмолинская область, Казахстан) (122 км)

Пояснения к столбцам:

Ветер - указаны скорость ветра в м/с - средняя за 10 мин, порывы в срок и между сроками (в фигурных скобках) и направление, откуда дует ветер: С - северный, СВ - северо-восточный, В - восточный, ЮВ - юго-восточный, Ю - южный, ЮЗ - юго-западный, З - западный, СЗ - северо-западный.
Видимость - горизонтальная дальность видимости в метрах или километрах. При видимости от 1 до 10 км при отсутствии осадков обычно наблюдается дымка, при ухудшении видимости до 1 км и менее - туман. В сухую погоду видимость может ухудшаться дымом, пылью или мглою.
Явления - указаны атмосферные явления, наблюдавшиеся в срок или в последний час перед сроком; фигурными скобками обозначены явления, наблюдавшиеся между сроками (за 1-3 часа до срока); квадратными скобками обозначены град или гололедные отложения с указанием их диаметра в мм.
Облачность - указаны через наклонную черту общая и нижняя облачность в баллах и высота нижней границы облаков в метрах; квадратными скобками обозначены формы облаков: Ci - перистые, Cs - перисто-слоистые, Cc - перисто-кучевые, Ac - высококучевые, As - высокослоистые, Sc - слоисто-кучевые, Ns - слоисто-дождевые, Cu - кучевые, Cb - кучево-дождевые. Подробнее классификацию облаков см. в Атласе облаков (PDF).
T - Температура воздуха - температура, измеренная на высоте 2 м над землей.
Td - Температура точки росы - температура, при понижении до которой содержащийся в воздухе водяной пар достигнет насыщения.
f - Относительная влажность воздуха - влажноcть воздуха, измеренная на высоте 2 м над землей.
Te - Эффективная температура - температура, которую ощущает одетый по сезону человек в тени. Характеристика душности погоды. При расчете учитывается влияние влажности воздуха и скорости ветра на теплоощущения человека.
Tes - Эффективная температура на солнце - температура, которую ощущает человек, с поправкой на солнечный нагрев. Характеристика знойности погоды. Зависит от высоты солнца над горизонтом, облачности и скорости ветра. Ночью, в пасмурную погоду, а также при ветре 12 м/с и более поправка равна нулю.
P - Атмосферное давление - приведенное к уровню моря атмосферное давление.
Po - Атмосферное давление - измеренное на уровне метеостанции атмосферное давление.
Tmin - Минимальная температура - минимум температуры воздуха на высоте 2 м над землей.
Tmax - Максимальная температура - максимум температуры воздуха на высоте 2 м над землей.
R - Количество осадков - Количество выпавших осадков за период времени, мм. При наведении курсора мыши на число - период времени, за который выпало указанное количество осадков.
R24 - Количество осадков - Количество выпавших осадков за 24 часа, мм.
S - Снежный покров - Высота снежного покрова, см. При наведении курсора мыши на число - состояние снежного покрова и степень покрытия местности в баллах.